Location: G�migny
(47.9646°N, 1.6950°E)
Time: 09:39:34
(UTC+00:00)

Cosmos 2058 - Pass Details

Date: 23 October 2019
Orbit: 562 x 584 km, 82.5° (Epoch: 19 November)

Event Time Altitude Azimuth Distance (km) Brightness Sun altitude
Rises 17:33:36 0° 1° (N) 2,822 6.3 -7.8°
Reaches altitude 10° 17:36:13 10° 17° (NNE) 1,915 5.3 -8.3°
Maximum altitude 17:39:34 22° 69° (ENE) 1,282 4.1 -8.8°
Drops below altitude 10° 17:42:53 10° 122° (ESE) 1,897 5.1 -9.4°
Sets 17:45:27 0° 137° (SE) 2,788 6.1 -9.8°
